TimeEST,TemperatureF,Dew PointF,Humidity,Sea Level PressureIn,VisibilityMPH,Wind Direction,Wind SpeedMPH,Gust SpeedMPH,PrecipitationIn,Events,Conditions,WindDirDegrees,DateUTC
12:06 AM,5.0,-2.2,72,30.49,6.0,West,8.1,-,N/A,,Haze,260,2009-01-16 05:06:00
12:14 AM,5.0,-2.2,72,30.50,4.0,West,5.8,-,0.00,Snow,Light Snow,270,2009-01-16 05:14:00
12:23 AM,5.0,-2.2,72,30.50,4.0,Variable,4.6,-,0.00,Snow,Light Snow,0,2009-01-16 05:23:00
12:30 AM,5.0,-2.2,72,30.50,5.0,West,5.8,-,0.00,Snow,Light Snow,260,2009-01-16 05:30:00
12:53 AM,3.9,-4.0,70,30.58,10.0,WSW,8.1,-,0.00,,Overcast,240,2009-01-16 05:53:00
1:35 AM,3.2,-2.2,78,30.50,3.0,West,5.8,-,0.00,Snow,Light Snow,270,2009-01-16 06:35:00
1:41 AM,3.2,-2.2,78,30.50,1.8,Variable,6.9,-,0.00,Snow,Light Snow,0,2009-01-16 06:41:00
1:50 AM,3.2,-2.2,78,30.50,3.0,Variable,5.8,17.3,0.00,Snow,Light Snow,0,2009-01-16 06:50:00
1:53 AM,3.0,-2.9,76,30.59,4.0,WSW,8.1,17.3,0.00,,Haze,250,2009-01-16 06:53:00
2:34 AM,1.4,-7.6,66,30.52,10.0,WSW,5.8,-,N/A,,Partly Cloudy,240,2009-01-16 07:34:00
2:53 AM,1.0,-9.9,60,30.61,10.0,WSW,6.9,-,N/A,,Clear,250,2009-01-16 07:53:00
3:53 AM,-0.0,-11.0,60,30.61,10.0,WSW,6.9,-,N/A,,Clear,240,2009-01-16 08:53:00
4:53 AM,-2.0,-13.0,60,30.63,10.0,WSW,5.8,-,N/A,,Clear,240,2009-01-16 09:53:00
5:32 AM,-2.2,-13.0,60,30.56,10.0,WSW,5.8,-,N/A,,Mostly Cloudy,250,2009-01-16 10:32:00
5:53 AM,-2.9,-13.0,62,30.66,10.0,SW,6.9,17.3,N/A,,Overcast,230,2009-01-16 10:53:00
6:17 AM,-2.2,-13.0,60,30.58,10.0,SW,8.1,-,N/A,,Overcast,230,2009-01-16 11:17:00
6:53 AM,-2.9,-11.9,65,30.68,10.0,SW,4.6,-,N/A,,Overcast,230,2009-01-16 11:53:00
7:53 AM,-2.9,-11.0,68,30.69,9.0,SW,4.6,-,N/A,,Overcast,230,2009-01-16 12:53:00
8:53 AM,-2.0,-9.9,69,30.71,6.0,SW,9.2,-,N/A,,Haze,220,2009-01-16 13:53:00
9:32 AM,-0.4,-9.4,66,30.62,10.0,SW,5.8,-,N/A,,Scattered Clouds,230,2009-01-16 14:32:00
9:53 AM,-0.9,-9.0,69,30.72,10.0,Variable,6.9,-,N/A,,Mostly Cloudy,0,2009-01-16 14:53:00
10:13 AM,-0.4,-9.4,66,30.63,10.0,SW,6.9,-,N/A,,Scattered Clouds,220,2009-01-16 15:13:00
10:53 AM,1.9,-8.0,63,30.71,10.0,SSW,6.9,-,N/A,,Clear,210,2009-01-16 15:53:00
11:53 AM,3.9,-7.1,60,30.69,10.0,WSW,8.1,-,N/A,,Partly Cloudy,250,2009-01-16 16:53:00
12:53 PM,5.0,-7.1,58,30.67,10.0,SW,6.9,16.1,N/A,,Partly Cloudy,230,2009-01-16 17:53:00
1:53 PM,8.1,-6.0,53,30.66,10.0,WSW,9.2,-,N/A,,Partly Cloudy,250,2009-01-16 18:53:00
2:53 PM,9.0,-7.1,48,30.66,10.0,WSW,8.1,-,N/A,,Scattered Clouds,240,2009-01-16 19:53:00
3:53 PM,8.1,-8.0,48,30.66,10.0,Variable,5.8,-,N/A,,Scattered Clouds,0,2009-01-16 20:53:00
4:53 PM,8.1,-7.1,50,30.66,10.0,SW,8.1,-,N/A,,Scattered Clouds,230,2009-01-16 21:53:00
5:53 PM,7.0,-8.0,51,30.68,10.0,WSW,3.5,-,N/A,,Clear,250,2009-01-16 22:53:00
6:53 PM,6.1,-8.0,53,30.68,10.0,WSW,3.5,-,N/A,,Clear,240,2009-01-16 23:53:00
7:53 PM,5.0,-8.0,55,30.67,10.0,Calm,Calm,-,N/A,,Clear,0,2009-01-17 00:53:00
8:53 PM,1.0,-7.1,69,30.66,10.0,Calm,Calm,-,N/A,,Clear,0,2009-01-17 01:53:00
9:53 PM,-0.0,-7.1,72,30.67,10.0,Calm,Calm,-,N/A,,Clear,0,2009-01-17 02:53:00
10:53 PM,-2.0,-7.1,79,30.66,8.0,South,3.5,-,N/A,,Clear,180,2009-01-17 03:53:00
11:53 PM,-0.0,-7.1,72,30.64,10.0,Calm,Calm,-,N/A,,Clear,0,2009-01-17 04:53:00